Jackson, MS

11:17 PM CDT on March 24, 2017 (GMT -0500)
Jackson-Evers International

Weather History for KJAN - June, 2014

Change the Weather History Date:

Sunday, June 22, 2014

  Actual Average Record
Temperature  
Mean Temperature 81 °F 80 °F  
Max Temperature 90 °F 91 °F 101 °F (1969)
Min Temperature 71 °F 70 °F 57 °F (1976)
Degree Days  
Heating Degree Days 0 0  
Month to date heating degree days 0 0  
Since 1 June heating degree days 0 0  
Since 1 July heating degree days 2744 2391  
Cooling Degree Days 16 15  
Month to date cooling degree days 323 295  
Year to date cooling degree days 654 653  
Since 1 June cooling degree days 323 295  
Growing Degree Days 30 (Base 50)    
Moisture  
Dew Point 71 °F    
Average Humidity 81    
Maximum Humidity 94    
Minimum Humidity 68    
Precipitation  
Precipitation 0.57 in 0.15 in 2.50 in (1957)
Month to date precipitation 3.82 2.94  
Year to date precipitation 35.42 27.05  
Sea Level Pressure  
Sea Level Pressure 29.94 in    
Wind  
Wind Speed 3 mph (ESE)    
Max Wind Speed 23 mph    
Max Gust Speed 32 mph    
Visibility 8 miles    
Events Rain , Thunderstorm    
T = Trace of Precipitation, MM = Missing Value Source: NWS Daily Summary

Daily Weather History Graph

Daily Weather History Graph

Search for Another Location

Airport or City:

Trip Planner

Search our weather history database for the weather conditions in past years. The results will help you decide how hot, cold, wet, or windy it might be!

Date:

Astronomy

Jun. 22, 2014 Rise Set
Actual Time 5:54 AM CDT 8:10 PM CDT
Civil Twilight 5:25 AM CDT 8:38 PM CDT
Nautical Twilight 4:50 AM CDT 9:13 PM CDT
Astronomical Twilight 4:13 AM CDT 9:51 PM CDT
Moon 2:30 AM CDT (6/22) 4:01 PM CDT (6/22)
Length of Visible Light 15h 13m
Length of Day
14h 16m
Waning Crescent, 20% of the Moon is Illuminated
Jun 22
Waning Crescent
Jun 27
New
Jul 5
First Quarter
Jul 12
Full
Jul 18
Last Quarter

Hourly Weather History & Observations

Time (CDT) Temp. Heat Index Dew Point Humidity Pressure Visibility Wind Dir Wind Speed Gust Speed Precip Events Conditions
12:54 AM 73.0 °F - 71.1 °F 93% 29.93 in 6.0 mi Calm Calm - N/A   Clear
1:54 AM 73.9 °F - 72.0 °F 93% 29.93 in 9.0 mi Calm Calm - N/A   Clear
2:54 AM 73.0 °F - 71.1 °F 93% 29.93 in 10.0 mi Calm Calm - N/A   Clear
3:54 AM 73.0 °F - 71.1 °F 93% 29.92 in 10.0 mi Calm Calm - N/A   Mostly Cloudy
4:54 AM 73.0 °F - 71.1 °F 93% 29.92 in 9.0 mi Calm Calm - N/A   Clear
5:54 AM 73.0 °F - 71.1 °F 93% 29.94 in 10.0 mi Calm Calm - 0.01 in   Mostly Cloudy
6:54 AM 73.9 °F - 71.1 °F 91% 29.96 in 9.0 mi South 5.8 mph - N/A   Mostly Cloudy
7:54 AM 75.9 °F - 72.0 °F 87% 29.97 in 10.0 mi Calm Calm - N/A   Scattered Clouds
8:54 AM 80.1 °F 84.2 °F 73.0 °F 79% 29.98 in 10.0 mi Calm Calm - N/A   Scattered Clouds
9:54 AM 84.9 °F 92.1 °F 73.9 °F 69% 29.97 in 10.0 mi Calm Calm - N/A   Scattered Clouds
10:54 AM 88.0 °F 97.5 °F 75.0 °F 65% 29.96 in 10.0 mi Variable 3.5 mph - N/A   Scattered Clouds
11:54 AM 89.1 °F 98.0 °F 73.9 °F 61% 29.94 in 10.0 mi West 3.5 mph - N/A Thunderstorm Thunderstorm
12:44 PM 78.8 °F - 73.4 °F 83% 29.94 in 1.5 mi Variable 5.8 mph - 0.04 in Rain , Thunderstorm Heavy Thunderstorms and Rain
12:54 PM 79.0 °F - 68.0 °F 69% 29.92 in 0.8 mi Variable 3.5 mph 32.2 mph 0.18 in Rain , Thunderstorm Heavy Thunderstorms and Rain
1:01 PM 78.8 °F - 66.2 °F 65% 29.94 in 2.5 mi Variable 4.6 mph - 0.15 in Rain , Thunderstorm Light Thunderstorms and Rain
1:08 PM 77.0 °F - 73.4 °F 89% 29.94 in 5.0 mi Variable 5.8 mph - 0.16 in Rain , Thunderstorm Light Thunderstorms and Rain
1:41 PM 71.6 °F - 69.8 °F 94% 29.97 in 1.8 mi North 16.1 mph 27.6 mph 0.17 in Rain , Thunderstorm Heavy Thunderstorms and Rain
1:49 PM 71.6 °F - 69.8 °F 94% 29.97 in 3.0 mi East 12.7 mph 23.0 mph 0.23 in Rain , Thunderstorm Light Thunderstorms and Rain
1:54 PM 72.0 °F - 69.1 °F 91% 29.96 in 9.0 mi ENE 11.5 mph - 0.23 in Rain , Thunderstorm Light Thunderstorms and Rain
2:40 PM 73.4 °F - 69.8 °F 88% 29.96 in 2.0 mi Calm Calm - 0.08 in Rain Light Rain
2:47 PM 73.4 °F - 69.8 °F 88% 29.94 in 1.2 mi NE 3.5 mph - 0.14 in Rain Heavy Rain
2:51 PM 75.2 °F - 71.6 °F 89% 29.94 in 3.0 mi NE 4.6 mph - 0.16 in Rain Light Rain
2:54 PM 75.9 °F - 72.0 °F 87% 29.93 in 7.0 mi ENE 3.5 mph - 0.16 in Rain Light Rain
3:54 PM 82.0 °F 86.7 °F 72.0 °F 71% 29.91 in 10.0 mi ESE 5.8 mph - 0.00 in   Mostly Cloudy
4:54 PM 82.0 °F 86.3 °F 71.1 °F 69% 29.92 in 10.0 mi East 6.9 mph - N/A   Mostly Cloudy
5:54 PM 79.0 °F - 71.1 °F 77% 29.93 in 10.0 mi East 5.8 mph - N/A   Mostly Cloudy
6:54 PM 78.1 °F - 71.1 °F 79% 29.91 in 10.0 mi SE 3.5 mph - N/A   Mostly Cloudy
7:54 PM 77.0 °F - 72.0 °F 84% 29.91 in 10.0 mi Calm Calm - N/A   Mostly Cloudy
8:54 PM 75.9 °F - 73.0 °F 91% 29.92 in 10.0 mi Calm Calm - 0.01 in   Mostly Cloudy
9:54 PM 75.0 °F - 73.0 °F 94% 29.93 in 10.0 mi South 4.6 mph - N/A   Mostly Cloudy
10:54 PM 75.0 °F - 73.0 °F 94% 29.93 in 10.0 mi South 4.6 mph - N/A   Mostly Cloudy
11:54 PM 73.9 °F - 72.0 °F 93% 29.93 in 10.0 mi SSW 3.5 mph - N/A   Clear